Regional Weather Roundup
Issued by NWS

Home | Current Version | Previous Version | Text Only | Print | Product List | Glossary On
Versions: 1 2 3 4 5 6 7 8 9 10 11 12 13 14 15 16 17 18 19 20 21 22 23 24 25 26 27 28 29 30 31 32 33 34 35 36 37 38 39 40 41 42 43 44 45 46 47 48 49 50
000
ASUS43 KTOP 241959
RWRKS

WEATHER ROUNDUP FOR KANSAS
NATIONAL WEATHER SERVICE GOODLAND KS
200 PM CST MON NOV 24 2014

NOTE:  "FAIR" INDICATES FEW OR NO CLOUDS BELOW 12,000 FEET WITH NO
SIGNIFICANT WEATHER AND/OR OBSTRUCTIONS TO VISIBILITY.

KSZ001>006-013>018-027>032-041>047-242100-
NORTHWEST KANSAS

CITY           SKY/WX    TMP DP  RH WIND       PRES   REMARKS
GOODLAND       PTSUNNY   45  17  32 N22G32    29.93R
HAYS           SUNNY     48  16  27 NW21G31   29.92R
HILL CITY      SUNNY     49  14  24 NW23G33   29.91R
RUSSELL        SUNNY     49  16  26 NW24G35   29.90R
$$

KSZ061>065-074>080-084>089-242100-
SOUTHWEST KANSAS

CITY           SKY/WX    TMP DP  RH WIND       PRES   REMARKS
DODGE CITY     SUNNY     52  13  21 N18G28    29.94S
ELKHART          N/A     50   5  16 NW10        N/A
GARDEN CITY    MOSUNNY   50  12  21 W15       29.94S
GREAT BEND     SUNNY     50  16  25 NW21G26   29.92R
LIBERAL        MOSUNNY   52  12  20 NW18G25   29.99S
$$

KSZ066>073-081>083-090>101-242100-
SOUTHEAST KANSAS

CITY           SKY/WX    TMP DP  RH WIND       PRES   REMARKS
CHANUTE        MOSUNNY   49  24  37 W21G31    29.85R
COFFEYVILLE    SUNNY     52  25  35 NW25G32   29.88R
HUTCHINSON     SUNNY     51  17  26 NW25G32   29.90R
MEDICINE LODGE   N/A     54  13  19 N17G28    29.93R
NEWTON         SUNNY     46  19  34 NW24G33   29.90R
PARSONS        SUNNY     52  25  35 W20G28    29.87S
WICHITA INTL   SUNNY     52  17  25 NW23G35   29.90R
WICHITA JABRA  SUNNY     50  20  30 NW24G35   29.89R
WICHITA MCCONL SUNNY     50  16  25 NW26G32   29.90R
WINFIELD       SUNNY     52  20  28 NW26G35   29.92R
$$

KSZ007>012-019>026-033>040-048>060-102>105-242100-
NORTHEAST KANSAS

CITY           SKY/WX    TMP DP  RH WIND       PRES   REMARKS
CONCORDIA      SUNNY     43  15  32 NW21G31   29.87R
EMPORIA        SUNNY     44  21  40 NW24G36   29.86R
LAWRENCE       CLOUDY    38  24  57 W13G22    29.85R WCI  30
MANHATTAN      SUNNY     44  21  40 NW13G21   29.87R
OLATHE IND     CLOUDY    37  23  56 W17       29.84R WCI  27
OLATHE EXE     CLOUDY    36  22  56 NW12G23   29.82R WCI  28
SALINA         SUNNY     49  19  30 NW29G35   29.89R
TOPEKA BILLARD CLOUDY    41  24  51 W10G21    29.85R
TOPEKA FORBES  PTSUNNY   41  23  48 NW14      29.84R
$$


USA.gov is the U.S. government's official web portal to all federal, state and local government web resources and services.